| time (UTC) | temp F | wind direction | speed MPH | gust MPH | rain 1hr in | rain 24hr in | rain mn in | humidity % | barometer mb |
| 20260504021404 | 52 | 230 | 1.0 | 5.0 | 0.00 | 0.00 | 0.00 | 40 | 1010.7 |
| 20260504020904 | 52 | 233 | 1.0 | 6.0 | 0.00 | 0.00 | 0.00 | 40 | 1010.7 |
| 20260504020404 | 52 | 223 | 0.0 | 1.0 | 0.00 | 0.00 | 0.00 | 40 | 1010.7 |
| 20260504015903 | 52 | 212 | 0.0 | 0.0 | 0.00 | 0.00 | 0.00 | 40 | 1010.6 |
| 20260504014904 | 52 | 223 | 0.0 | 1.0 | 0.00 | 0.00 | 0.00 | 40 | 1010.6 |
| 20260504013904 | 53 | 210 | 0.0 | 0.0 | 0.00 | 0.00 | 0.00 | 39 | 1010.5 |
| 20260504012905 | 52 | 225 | 0.0 | 0.0 | 0.00 | 0.00 | 0.00 | 40 | 1010.4 |
| 20260504012404 | 52 | 238 | 0.0 | 0.0 | 0.00 | 0.00 | 0.00 | 41 | 1010.4 |
| 20260504011404 | 52 | 238 | 0.0 | 0.0 | 0.00 | 0.00 | 0.00 | 41 | 1010.3 |
| 20260504010904 | 53 | 238 | 0.0 | 0.0 | 0.00 | 0.00 | 0.00 | 40 | 1010.2 |
| 20260504010403 | 52 | 263 | 0.0 | 0.0 | 0.00 | 0.00 | 0.00 | 41 | 1010.2 |
| 20260504005904 | 53 | 268 | 0.0 | 0.0 | 0.00 | 0.00 | 0.00 | 42 | 1010.0 |
| 20260504004905 | 53 | 268 | 0.0 | 0.0 | 0.00 | 0.00 | 0.00 | 39 | 1010.0 |
| 20260504004404 | 54 | 268 | 0.0 | 0.0 | 0.00 | 0.00 | 0.00 | 38 | 1009.9 |
| 20260504003904 | 54 | 268 | 0.0 | 0.0 | 0.00 | 0.00 | 0.00 | 37 | 1009.8 |
| 20260504003405 | 55 | 268 | 0.0 | 0.0 | 0.00 | 0.00 | 0.00 | 36 | 1009.8 |
| 20260504002904 | 55 | 267 | 0.0 | 6.0 | 0.00 | 0.00 | 0.00 | 35 | 1009.8 |
| 20260504002405 | 55 | 270 | 0.0 | 3.0 | 0.00 | 0.00 | 0.00 | 35 | 1009.6 |
| 20260504001904 | 56 | 279 | 1.0 | 7.0 | 0.00 | 0.00 | 0.00 | 34 | 1009.5 |
| 20260504000406 | 57 | 282 | 1.0 | 7.0 | 0.00 | 0.00 | 0.00 | 32 | 1009.2 |
| 20260503235904 | 57 | 287 | 4.0 | 9.0 | 0.00 | 0.00 | 0.00 | 32 | 1009.2 |
| 20260503235405 | 57 | 252 | 3.0 | 10.0 | 0.00 | 0.00 | 0.00 | 31 | 1009.2 |
| 20260503234904 | 57 | 249 | 0.0 | 8.0 | 0.00 | 0.00 | 0.00 | 33 | 1009.1 |
| 20260503234405 | 57 | 260 | 2.0 | 10.0 | 0.00 | 0.00 | 0.00 | 31 | 1009.0 |
| 20260503233905 | 57 | 247 | 3.0 | 16.0 | 0.00 | 0.00 | 0.00 | 30 | 1009.0 |
| 20260503233404 | 58 | 246 | 5.0 | 14.0 | 0.00 | 0.00 | 0.00 | 30 | 1008.8 |
| 20260503232904 | 58 | 294 | 4.0 | 13.0 | 0.00 | 0.00 | 0.00 | 30 | 1008.8 |
| 20260503232405 | 58 | 285 | 5.0 | 13.0 | 0.00 | 0.00 | 0.00 | 31 | 1008.8 |
| 20260503231905 | 58 | 286 | 1.0 | 14.0 | 0.00 | 0.00 | 0.00 | 30 | 1008.8 |
| 20260503231404 | 57 | 281 | 7.0 | 13.0 | 0.00 | 0.00 | 0.00 | 31 | 1008.8 |
| 20260503230904 | 58 | 302 | 3.0 | 13.0 | 0.00 | 0.00 | 0.00 | 29 | 1008.7 |
| 20260503230405 | 58 | 272 | 3.0 | 13.0 | 0.00 | 0.00 | 0.00 | 29 | 1008.7 |
| 20260503225906 | 58 | 290 | 5.0 | 16.0 | 0.00 | 0.00 | 0.00 | 30 | 1008.7 |
| 20260503225405 | 58 | 281 | 4.0 | 13.0 | 0.00 | 0.00 | 0.00 | 29 | 1008.6 |
| 20260503224904 | 58 | 293 | 3.0 | 12.0 | 0.00 | 0.00 | 0.00 | 29 | 1008.5 |
| 20260503224405 | 58 | 319 | 3.0 | 14.0 | 0.00 | 0.00 | 0.00 | 28 | 1008.5 |
| 20260503223405 | 59 | 308 | 7.0 | 23.0 | 0.00 | 0.00 | 0.00 | 29 | 1008.6 |
| 20260503222405 | 59 | 291 | 4.0 | 16.0 | 0.00 | 0.00 | 0.00 | 28 | 1008.6 |
| 20260503221905 | 59 | 305 | 8.0 | 14.0 | 0.00 | 0.00 | 0.00 | 28 | 1008.6 |
| 20260503221404 | 59 | 294 | 1.0 | 14.0 | 0.00 | 0.00 | 0.00 | 30 | 1008.6 |
| 20260503220905 | 59 | 305 | 7.0 | 20.0 | 0.00 | 0.00 | 0.00 | 28 | 1008.5 |
| 20260503220404 | 59 | 280 | 2.0 | 14.0 | 0.00 | 0.00 | 0.00 | 29 | 1008.5 |
| 20260503215906 | 59 | 327 | 5.0 | 20.0 | 0.00 | 0.00 | 0.00 | 28 | 1008.7 |
| 20260503215404 | 59 | 334 | 5.0 | 12.0 | 0.00 | 0.00 | 0.00 | 28 | 1008.8 |
| 20260503214905 | 59 | 291 | 6.0 | 18.0 | 0.00 | 0.00 | 0.00 | 27 | 1008.8 |
| 20260503214404 | 59 | 287 | 5.0 | 20.0 | 0.00 | 0.00 | 0.00 | 28 | 1008.7 |
| 20260503213904 | 59 | 273 | 9.0 | 16.0 | 0.00 | 0.00 | 0.00 | 28 | 1008.7 |
| 20260503213405 | 59 | 278 | 8.0 | 17.0 | 0.00 | 0.00 | 0.00 | 28 | 1008.6 |
| 20260503212905 | 59 | 283 | 6.0 | 20.0 | 0.00 | 0.00 | 0.00 | 28 | 1008.6 |
| 20260503212404 | 60 | 297 | 6.0 | 16.0 | 0.00 | 0.00 | 0.00 | 29 | 1008.5 |
| 20260503211906 | 59 | 310 | 4.0 | 18.0 | 0.00 | 0.00 | 0.00 | 31 | 1008.5 |
| 20260503211404 | 59 | 267 | 8.0 | 21.0 | 0.00 | 0.00 | 0.00 | 27 | 1008.5 |
| 20260503210404 | 59 | 257 | 9.0 | 23.0 | 0.00 | 0.00 | 0.00 | 28 | 1008.4 |
| 20260503205905 | 59 | 285 | 11.0 | 23.0 | 0.00 | 0.00 | 0.00 | 29 | 1008.4 |
| 20260503204905 | 59 | 280 | 9.0 | 20.0 | 0.00 | 0.00 | 0.00 | 28 | 1008.4 |
| 20260503204405 | 60 | 275 | 6.0 | 20.0 | 0.00 | 0.00 | 0.00 | 30 | 1008.5 |
| 20260503203905 | 60 | 288 | 6.0 | 18.0 | 0.00 | 0.00 | 0.00 | 29 | 1008.4 |
| 20260503202904 | 59 | 314 | 6.0 | 16.0 | 0.00 | 0.00 | 0.00 | 32 | 1008.6 |
| 20260503202403 | 58 | 272 | 10.0 | 16.0 | 0.00 | 0.00 | 0.00 | 29 | 1008.6 |
| 20260503201904 | 58 | 327 | 10.0 | 25.0 | 0.00 | 0.00 | 0.00 | 30 | 1008.6 |
| 20260503201404 | 59 | 302 | 11.0 | 24.0 | 0.00 | 0.00 | 0.00 | 30 | 1008.6 |
| 20260503200904 | 59 | 297 | 9.0 | 25.0 | 0.00 | 0.00 | 0.00 | 28 | 1008.6 |
| 20260503195904 | 59 | 281 | 7.0 | 18.0 | 0.00 | 0.00 | 0.00 | 29 | 1008.8 |
| 20260503194903 | 58 | 294 | 7.0 | 21.0 | 0.00 | 0.00 | 0.00 | 32 | 1008.9 |
| 20260503194404 | 58 | 285 | 8.0 | 17.0 | 0.00 | 0.00 | 0.00 | 32 | 1008.8 |
| 20260503193904 | 57 | 297 | 12.0 | 21.0 | 0.00 | 0.00 | 0.00 | 33 | 1008.9 |
| 20260503192404 | 58 | 317 | 9.0 | 20.0 | 0.00 | 0.00 | 0.00 | 34 | 1009.2 |
| 20260503191904 | 57 | 290 | 9.0 | 18.0 | 0.00 | 0.00 | 0.00 | 33 | 1009.1 |
| 20260503191404 | 57 | 270 | 10.0 | 21.0 | 0.00 | 0.00 | 0.00 | 31 | 1009.1 |
| 20260503190904 | 58 | 290 | 5.0 | 16.0 | 0.00 | 0.00 | 0.00 | 38 | 1009.2 |
| 20260503190404 | 57 | 304 | 9.0 | 20.0 | 0.00 | 0.00 | 0.00 | 35 | 1009.2 |
| 20260503185404 | 60 | 272 | 6.0 | 20.0 | 0.00 | 0.00 | 0.00 | 35 | 1009.1 |
| 20260503184905 | 57 | 321 | 5.0 | 17.0 | 0.00 | 0.00 | 0.00 | 37 | 1009.3 |
| 20260503184404 | 57 | 301 | 9.0 | 20.0 | 0.00 | 0.00 | 0.00 | 34 | 1009.2 |
| 20260503183904 | 57 | 338 | 8.0 | 20.0 | 0.00 | 0.00 | 0.00 | 37 | 1009.3 |
| 20260503182904 | 58 | 279 | 10.0 | 20.0 | 0.00 | 0.00 | 0.00 | 35 | 1009.3 |
| 20260503182405 | 57 | 279 | 6.0 | 25.0 | 0.00 | 0.00 | 0.00 | 38 | 1009.3 |
| 20260503181904 | 57 | 308 | 7.0 | 16.0 | 0.00 | 0.00 | 0.00 | 36 | 1009.4 |
| 20260503181405 | 57 | 306 | 9.0 | 18.0 | 0.00 | 0.00 | 0.00 | 41 | 1009.5 |
| 20260503180904 | 55 | 306 | 7.0 | 14.0 | 0.00 | 0.00 | 0.00 | 40 | 1009.5 |
| 20260503180404 | 56 | 315 | 6.0 | 16.0 | 0.00 | 0.00 | 0.00 | 37 | 1009.7 |
| 20260503174405 | 55 | 276 | 6.0 | 17.0 | 0.00 | 0.00 | 0.00 | 41 | 1009.9 |
| 20260503173904 | 54 | 319 | 9.0 | 20.0 | 0.00 | 0.00 | 0.00 | 42 | 1009.8 |
| 20260503173404 | 53 | 276 | 7.0 | 14.0 | 0.00 | 0.00 | 0.00 | 39 | 1009.9 |
| 20260503172904 | 53 | 320 | 8.0 | 20.0 | 0.00 | 0.00 | 0.00 | 38 | 1009.9 |
| 20260503172405 | 55 | 279 | 10.0 | 23.0 | 0.00 | 0.00 | 0.00 | 39 | 1009.9 |
| 20260503171904 | 53 | 267 | 8.0 | 20.0 | 0.00 | 0.00 | 0.00 | 40 | 1009.9 |
| 20260503171404 | 53 | 315 | 7.0 | 18.0 | 0.00 | 0.00 | 0.00 | 39 | 1009.9 |
| 20260503170905 | 52 | 313 | 9.0 | 16.0 | 0.00 | 0.00 | 0.00 | 39 | 1009.9 |
| 20260503170405 | 52 | 325 | 7.0 | 20.0 | 0.00 | 0.00 | 0.00 | 40 | 1010.0 |
| 20260503150904 | 49 | 294 | 9.0 | 20.0 | 0.00 | 0.00 | 0.00 | 39 | 1010.3 |
| 20260503150405 | 50 | 287 | 9.0 | 22.0 | 0.00 | 0.00 | 0.00 | 39 | 1010.3 |
| 20260503131404 | 48 | 316 | 6.0 | 14.0 | 0.00 | 0.00 | 0.00 | 54 | 1010.4 |
| 20260503130904 | 47 | 294 | 8.0 | 16.0 | 0.00 | 0.00 | 0.00 | 53 | 1010.4 |
| 20260503130404 | 47 | 305 | 10.0 | 17.0 | 0.00 | 0.00 | 0.00 | 54 | 1010.4 |
| 20260503110404 | 43 | 297 | 2.0 | 9.0 | 0.00 | 0.00 | 0.00 | 58 | 1009.7 |
| 20260503090405 | 44 | 324 | 2.0 | 8.0 | 0.00 | 0.01 | 0.00 | 53 | 1008.8 |
| 20260503081404 | 44 | 321 | 1.0 | 6.0 | 0.00 | 0.01 | 0.00 | 58 | 1008.9 |
| 20260503080904 | 45 | 311 | 1.0 | 3.0 | 0.00 | 0.01 | 0.00 | 57 | 1008.9 |
| 20260503080405 | 45 | 23 | 0.0 | 1.0 | 0.00 | 0.01 | 0.00 | 57 | 1008.9 |
| 20260503072904 | 45 | 355 | 0.0 | 0.0 | 0.00 | 0.01 | 0.00 | 54 | 1008.9 |
| 20260503072404 | 45 | 24 | 1.0 | 3.0 | 0.00 | 0.01 | 0.00 | 54 | 1008.8 |
| 20260503071404 | 45 | 338 | 1.0 | 5.0 | 0.00 | 0.01 | 0.00 | 54 | 1008.8 |
| 20260503070405 | 46 | 328 | 0.0 | 3.0 | 0.00 | 0.01 | 0.00 | 53 | 1008.9 |
| 20260503054904 | 48 | 308 | 0.0 | 0.0 | 0.00 | 0.01 | 0.00 | 45 | 1009.1 |
| 20260503054405 | 48 | 304 | 0.0 | 3.0 | 0.00 | 0.01 | 0.00 | 45 | 1009.0 |
| 20260503053904 | 48 | 5 | 0.0 | 6.0 | 0.00 | 0.01 | 0.00 | 45 | 1009.1 |
| 20260503053405 | 49 | 337 | 0.0 | 0.0 | 0.00 | 0.01 | 0.00 | 45 | 1009.2 |
| 20260503052905 | 49 | 331 | 0.0 | 0.0 | 0.00 | 0.01 | 0.00 | 44 | 1009.4 |
| 20260503052404 | 49 | 310 | 0.0 | 0.0 | 0.00 | 0.01 | 0.00 | 45 | 1009.5 |
| 20260503051904 | 49 | 310 | 0.0 | 6.0 | 0.00 | 0.01 | 0.00 | 44 | 1009.5 |
| 20260503050904 | 49 | 340 | 0.0 | 5.0 | 0.00 | 0.01 | 0.00 | 44 | 1009.5 |
| 20260503050404 | 49 | 321 | 0.0 | 8.0 | 0.00 | 0.01 | 0.00 | 43 | 1009.6 |
| 20260503045905 | 49 | 2 | 2.0 | 8.0 | 0.00 | 0.01 | 0.00 | 43 | 1009.6 |
| 20260503045404 | 49 | 314 | 0.0 | 9.0 | 0.00 | 0.01 | 0.00 | 44 | 1009.5 |
| 20260503044904 | 49 | 314 | 1.0 | 8.0 | 0.00 | 0.01 | 0.00 | 42 | 1009.6 |
| 20260503044404 | 49 | 331 | 0.0 | 8.0 | 0.00 | 0.01 | 0.00 | 43 | 1009.6 |
| 20260503043904 | 50 | 14 | 4.0 | 12.0 | 0.00 | 0.01 | 0.00 | 43 | 1009.6 |
| 20260503043405 | 50 | 314 | 0.0 | 1.0 | 0.00 | 0.01 | 0.00 | 43 | 1009.6 |
| 20260503042904 | 50 | 14 | 3.0 | 10.0 | 0.00 | 0.01 | 0.00 | 42 | 1009.7 |
| 20260503042405 | 50 | 333 | 2.0 | 7.0 | 0.00 | 0.01 | 0.00 | 42 | 1009.7 |
| 20260503041905 | 50 | 8 | 0.0 | 3.0 | 0.00 | 0.01 | 0.00 | 42 | 1009.8 |
| 20260503041404 | 50 | 0 | 1.0 | 8.0 | 0.00 | 0.01 | 0.00 | 42 | 1009.7 |
| 20260503040905 | 50 | 333 | 3.0 | 9.0 | 0.00 | 0.01 | 0.00 | 42 | 1009.7 |
| 20260503040405 | 50 | 338 | 2.0 | 12.0 | 0.00 | 0.01 | 0.00 | 42 | 1009.7 |
| 20260503035905 | 50 | 341 | 1.0 | 8.0 | 0.00 | 0.01 | 0.01 | 41 | 1009.7 |
| 20260503035405 | 51 | 313 | 1.0 | 12.0 | 0.00 | 0.01 | 0.01 | 42 | 1009.6 |
| 20260503034904 | 51 | 277 | 1.0 | 6.0 | 0.00 | 0.01 | 0.01 | 42 | 1009.6 |
| 20260503034404 | 50 | 327 | 2.0 | 9.0 | 0.00 | 0.01 | 0.01 | 42 | 1009.5 |
| 20260503033905 | 51 | 1 | 1.0 | 3.0 | 0.00 | 0.01 | 0.01 | 44 | 1009.5 |
| 20260503033405 | 51 | 317 | 0.0 | 8.0 | 0.00 | 0.01 | 0.01 | 43 | 1009.5 |
| 20260503032405 | 51 | 312 | 1.0 | 6.0 | 0.00 | 0.01 | 0.01 | 44 | 1009.6 |
| 20260503031904 | 51 | 313 | 1.0 | 9.0 | 0.00 | 0.01 | 0.01 | 43 | 1009.6 |
| 20260503031405 | 51 | 312 | 0.0 | 5.0 | 0.00 | 0.01 | 0.01 | 43 | 1009.5 |
| 20260503030904 | 51 | 304 | 0.0 | 3.0 | 0.00 | 0.01 | 0.01 | 42 | 1009.5 |
| 20260503030405 | 51 | 330 | 1.0 | 6.0 | 0.00 | 0.01 | 0.01 | 43 | 1009.6 |
| 20260503025904 | 51 | 314 | 0.0 | 7.0 | 0.00 | 0.01 | 0.01 | 42 | 1009.6 |
| 20260503025406 | 51 | 323 | 0.0 | 3.0 | 0.00 | 0.01 | 0.01 | 43 | 1009.6 |
| 20260503024405 | 51 | 331 | 1.0 | 7.0 | 0.00 | 0.01 | 0.01 | 42 | 1009.5 |
| 20260503023403 | 52 | 332 | 0.0 | 7.0 | 0.00 | 0.01 | 0.01 | 42 | 1009.5 |
| 20260503022904 | 52 | 318 | 0.0 | 6.0 | 0.00 | 0.01 | 0.01 | 41 | 1009.5 |
| 20260503022403 | 52 | 317 | 0.0 | 1.0 | 0.00 | 0.01 | 0.01 | 41 | 1009.5 |
| 20260503021904 | 52 | 5 | 0.0 | 1.0 | 0.00 | 0.01 | 0.01 | 41 | 1009.6 |